Theta_e
303 303 303 304 304 305 305 305 306 305 303 307 307 312 308 303 300 309 312 317 312 304 299 299 295 295 296 298 298 300 298 298 299 298 300 297 299 298 297 297 296 297 296 296 296 297 295 297 296 300 299 298 301 303 303 305 302 303 301 302 303 304 292 292 294 298 300 301 302 302 302 301 299 300 301 300 296 298 295 294 297 293 293 290 291 287 292
303 303 303 303 304 304 305 305 305 305 304 305 307 307 304 303 302 305 311 316 311 301 290 290 292 295 297 297 297 299 297 297 297 296 298 297 297 295 295 297 298 296 298 297 294 298 290 297 297 297 302 297 303 302 303 303 302 301 301 297 302 292 296 294 289 290 291 295 298 297 301 300 297 298 300 299 299 300 301 301 299 290 294 293 290 285 291
303 303 303 303 304 304 305 305 305 305 304 306 307 306 305 305 307 305 307 311 310 299 301 298 295 295 294 294 294 295 296 297 298 298 296 299 297 297 296 297 298 296 298 296 297 297 295 296 299 298 300 299 303 304 304 305 303 304 307 306 305 295 295 292 286 283 282 282 283 285 290 295 298 299 299 300 298 299 297 291 294 288 293 293 290 288 298
302 303 303 303 304 304 305 305 305 304 304 304 308 309 306 298 290 299 304 306 305 305 305 302 298 295 295 291 295 296 294 296 298 298 297 298 298 299 298 299 299 296 296 295 294 294 298 295 296 298 297 299 301 303 304 303 304 307 310 307 305 298 300 297 293 290 288 289 291 296 296 296 292 295 297 298 299 300 300 298 293 289 292 291 293 293 296
302 302 303 303 304 304 305 305 304 304 303 304 306 309 304 302 294 294 291 302 301 300 302 299 300 295 299 290 296 294 294 296 296 298 295 298 297 297 296 296 295 295 294 295 294 295 295 297 296 297 297 299 301 303 305 306 306 309 305 308 303 295 293 297 297 295 293 294 293 296 296 293 296 296 296 298 298 299 298 292 290 298 293 288 297 300 297
302 302 303 303 304 304 304 305 304 303 303 303 310 303 302 294 297 300 301 295 292 294 294 299 297 299 298 295 297 295 294 294 292 296 297 298 299 294 296 295 295 295 295 296 291 294 294 295 292 297 300 298 300 300 304 304 306 305 304 307 303 299 292 297 296 293 294 296 295 295 294 295 296 297 297 297 298 298 295 295 298 298 290 288 294 299 299
302 302 303 303 304 304 304 305 304 303 302 304 311 301 302 301 300 300 304 296 299 298 298 299 297 295 295 295 296 294 294 293 295 295 296 295 296 297 289 294 295 295 296 296 294 296 291 289 300 298 297 298 299 297 299 302 304 304 304 303 306 300 294 298 297 294 294 294 295 295 293 293 294 295 296 298 298 299 299 299 300 300 298 299 299 298 297
302 302 303 303 304 304 304 304 304 303 301 310 305 301 300 295 297 295 302 302 299 299 299 298 297 292 294 290 292 293 294 293 294 296 296 291 295 298 294 293 295 296 296 296 296 298 298 298 292 301 301 300 301 298 298 298 302 302 303 302 305 299 293 297 298 294 292 295 294 294 293 293 291 293 295 296 298 297 296 297 299 299 299 300 298 295 294
302 302 303 303 304 304 304 305 305 303 302 308 303 301 303 303 305 304 298 292 295 299 296 295 294 291 291 288 290 293 294 292 293 294 297 295 293 296 294 296 296 297 297 297 295 297 298 299 298 299 299 295 300 298 299 301 299 301 302 302 303 300 294 298 297 290 289 294 294 293 293 292 291 292 293 294 293 291 294 292 296 297 294 296 295 292 291
301 302 303 303 303 304 304 305 305 303 304 307 303 298 306 307 306 307 301 291 294 295 296 296 293 288 290 288 289 291 292 296 296 290 296 297 297 297 297 298 297 296 296 294 294 297 298 299 299 299 300 301 301 301 301 300 301 301 300 302 299 298 295 293 293 289 289 295 294 294 292 290 286 287 292 294 292 293 295 295 296 295 297 293 290 292 299
301 302 302 303 303 304 304 305 305 304 307 305 304 300 302 300 301 302 301 292 291 294 293 292 290 289 292 292 292 295 294 295 296 291 289 296 296 298 298 297 296 293 292 295 299 300 300 300 301 302 300 301 300 300 300 300 300 300 302 299 298 299 299 294 298 287 288 293 294 294 288 281 284 293 297 296 293 293 292 290 292 294 296 293 297 297 300
301 301 302 303 303 303 304 305 305 305 304 308 309 303 304 306 305 303 295 290 290 295 292 289 291 293 292 292 292 290 291 293 293 296 293 295 296 298 297 297 296 289 296 301 301 301 301 301 300 301 300 299 300 300 300 299 299 301 301 300 297 295 296 294 297 290 288 292 292 286 280 284 291 296 297 296 296 295 292 293 294 294 294 295 294 295 295
301 301 302 302 303 303 304 305 305 305 305 308 308 302 307 309 306 301 296 292 289 292 289 290 294 294 294 294 292 292 293 294 295 296 295 294 295 296 296 295 294 295 300 299 300 299 297 296 296 296 296 298 298 298 298 298 298 300 301 301 300 292 293 293 290 291 290 287 287 279 281 290 294 294 296 299 298 296 294 291 293 295 295 294 292 293 294
301 301 301 302 303 303 304 305 305 305 305 306 308 304 305 306 304 301 297 291 289 293 296 293 293 293 294 294 294 294 294 293 294 295 292 295 293 293 295 297 298 301 301 302 300 299 295 296 291 292 292 295 295 293 296 296 297 298 298 299 301 299 297 293 289 292 285 287 286 285 290 291 291 290 293 295 292 294 293 287 290 296 297 295 293 293 294
301 301 301 302 302 303 304 304 305 305 305 305 310 305 304 306 307 304 303 297 288 291 293 287 291 293 294 292 293 294 293 294 294 292 295 297 294 295 295 297 300 300 302 299 296 298 292 290 287 287 290 288 284 286 295 292 296 297 297 298 299 299 293 295 289 287 290 285 283 285 283 281 286 293 296 298 298 298 299 295 289 297 298 298 296 294 295
301 301 301 301 302 303 303 304 304 305 305 304 310 304 305 309 311 309 301 296 294 286 290 295 295 295 293 292 293 292 291 290 292 294 294 293 293 296 297 298 300 301 299 297 297 293 292 288 286 286 283 285 290 287 285 292 290 294 297 297 297 298 299 295 291 288 288 285 283 283 280 283 289 291 293 296 297 299 299 293 287 295 298 299 298 297 297
300 300 301 301 302 302 303 304 304 305 305 304 307 304 302 312 311 306 301 297 295 288 295 296 297 296 294 292 294 292 293 290 292 288 289 289 292 293 296 298 301 300 296 296 296 293 290 287 291 289 289 290 286 285 290 288 288 289 293 296 295 295 293 292 289 287 287 286 284 283 285 281 290 293 293 294 297 294 293 282 283 294 298 299 298 297 297
300 300 301 301 301 302 303 304 304 305 304 304 307 305 302 310 312 310 302 297 292 291 295 297 295 293 291 293 292 294 295 295 294 296 292 294 292 292 293 296 295 298 299 292 292 289 287 287 285 285 285 291 292 291 283 288 284 286 287 290 289 288 289 289 285 287 287 285 285 286 284 291 294 294 295 295 297 294 284 281 287 296 297 298 298 297 298
299 300 300 301 301 302 303 304 304 304 305 304 307 305 302 309 311 311 303 297 295 288 295 297 298 295 298 299 297 296 295 295 295 290 289 290 292 295 296 296 297 291 296 291 292 288 287 287 290 289 287 288 291 285 291 286 285 290 290 287 287 287 287 288 288 285 285 286 284 284 285 289 294 296 296 294 293 283 282 289 297 296 296 298 298 297 298
299 300 300 301 301 302 303 304 304 305 305 305 306 303 303 307 310 309 303 295 295 293 295 295 296 294 296 295 293 292 294 294 295 292 290 286 295 296 295 290 295 295 293 295 287 290 287 286 287 291 287 287 289 292 287 287 291 288 288 290 287 286 284 285 284 287 287 286 284 282 278 286 295 295 293 295 287 287 293 296 297 298 297 296 296 297 297
299 300 300 300 301 302 303 303 304 304 305 305 304 307 300 307 309 309 309 305 297 291 292 298 297 296 296 295 297 295 295 292 293 292 294 293 296 294 285 284 289 292 288 290 285 286 288 286 289 287 290 289 289 289 284 286 288 293 291 290 289 292 285 285 286 288 283 283 280 280 285 290 296 295 287 292 295 297 298 297 295 297 297 296 295 296 297
299 299 300 300 301 302 302 303 304 304 305 305 304 310 300 304 307 307 309 305 296 292 295 298 299 298 299 299 299 299 297 297 297 298 295 293 296 294 293 294 292 294 294 295 291 290 292 289 292 287 286 288 292 286 289 284 282 288 293 292 283 292 289 288 285 289 286 284 284 289 293 295 296 296 295 296 297 298 298 297 296 295 295 298 295 295 296
299 300 300 301 301 302 302 303 303 304 304 305 306 306 300 303 303 308 309 299 301 301 302 301 300 300 300 300 300 301 301 301 301 301 300 294 292 294 292 292 293 298 296 297 291 292 291 291 287 291 289 289 287 286 288 287 285 288 286 291 291 293 295 296 292 288 293 293 293 294 293 294 294 296 296 295 296 297 297 296 294 295 295 296 294 295 295
300 300 300 301 301 302 302 303 303 303 304 305 305 307 304 304 306 306 304 301 296 293 296 300 296 290 294 294 298 300 300 300 301 302 302 300 290 290 295 295 297 298 296 297 297 293 290 290 290 292 286 290 291 286 284 283 285 289 288 287 291 293 294 293 288 291 288 282 292 291 291 293 293 293 295 296 297 296 297 296 295 295 296 295 295 295 295
300 300 300 301 301 302 302 303 303 303 303 304 306 307 307 305 307 305 303 291 292 293 288 290 292 296 297 300 301 299 299 301 303 302 301 300 297 293 290 295 298 295 294 296 300 297 293 288 290 288 284 291 292 285 290 286 286 291 285 287 289 288 295 290 290 289 285 285 290 292 293 294 295 294 294 294 295 296 296 296 295 295 296 296 296 296 295
300 300 300 300 301 302 302 303 303 303 303 304 305 306 302 302 306 308 306 302 300 294 289 288 293 299 300 298 295 297 300 301 301 301 300 299 299 300 299 300 300 300 299 298 297 292 291 290 290 289 287 287 294 288 287 290 289 292 289 287 291 290 293 286 290 287 289 291 292 292 294 293 293 294 295 295 295 295 296 296 296 296 295 295 295 295 295
300 300 300 301 301 301 302 302 302 303 303 303 306 308 304 305 307 304 302 301 298 290 292 288 293 295 297 296 298 300 300 300 301 300 299 299 298 299 299 298 297 297 297 296 295 292 291 289 288 288 290 289 293 291 291 289 290 287 286 290 294 291 286 290 288 285 284 285 288 291 285 285 290 292 294 294 296 296 295 295 295 295 294 295 294 295 296
301 300 300 301 301 302 302 302 302 302 303 303 307 307 307 305 305 305 306 305 301 293 291 291 291 294 299 295 298 300 299 300 300 299 298 298 298 298 298 297 297 295 294 292 289 289 289 287 286 289 289 291 288 287 292 292 291 289 289 290 292 289 290 289 286 285 284 290 292 293 292 292 292 293 294 295 296 295 294 293 294 294 294 294 294 293 294
301 300 300 301 301 302 302 302 302 302 302 303 308 306 306 305 307 306 305 307 306 301 295 294 296 296 290 293 300 299 299 301 300 299 299 298 298 298 297 296 295 295 295 292 290 290 289 288 290 288 287 293 291 286 288 284 284 284 288 291 292 293 295 293 292 291 292 293 293 294 293 290 292 294 295 295 296 295 294 294 294 294 294 294 294 294 293
301 300 300 301 301 302 302 302 302 302 302 306 306 304 298 301 306 306 305 305 306 303 295 289 288 289 298 298 297 297 297 299 299 299 298 297 297 297 296 296 295 297 295 290 290 286 288 288 289 294 294 296 288 287 284 286 284 287 291 292 292 293 294 294 294 292 290 293 293 293 293 293 294 294 295 295 295 296 294 294 294 294 294 295 294 294 294
300 300 300 301 301 301 302 302 302 302 301 307 305 296 293 290 301 306 303 305 307 303 296 293 289 293 293 297 298 295 296 296 297 297 297 298 297 297 297 298 298 295 291 291 290 288 290 287 288 290 293 292 289 286 286 285 284 286 290 291 292 292 292 293 294 294 294 293 294 294 294 294 294 293 293 294 295 295 294 294 295 293 293 293 293 294 294
300 300 301 301 301 301 301 302 302 302 307 304 300 299 298 298 302 304 304 305 307 303 295 289 287 289 289 293 297 298 297 297 298 299 297 297 297 297 298 296 293 296 291 289 289 290 287 288 287 290 290 291 289 286 287 286 283 284 290 291 293 293 293 293 293 294 294 294 293 291 291 291 292 290 290 294 294 295 294 294 294 295 293 294 294 294 293
300 300 301 301 301 301 301 302 302 303 305 305 303 303 303 302 302 303 304 306 306 301 299 291 287 287 288 292 297 297 297 298 297 298 295 297 296 296 294 297 298 296 297 291 288 287 291 288 288 287 289 294 287 286 287 284 285 291 291 291 292 292 292 293 293 294 293 293 293 289 288 289 291 293 294 294 294 294 293 292 293 293 293 292 293 293 293
300 300 300 301 301 300 301 302 302 300 301 303 303 303 307 302 305 303 305 306 303 300 296 290 285 286 287 294 292 294 298 294 293 294 290 296 297 296 291 295 295 289 292 289 290 289 290 289 288 287 290 287 288 286 282 286 290 290 291 292 292 292 293 292 292 292 292 293 293 293 293 293 293 293 293 293 293 294 294 294 293 292 292 292 291 292 292
300 300 300 300 300 301 301 302 304 302 301 301 302 306 306 301 301 303 305 306 293 290 289 289 291 287 286 287 287 291 298 296 291 294 290 293 298 293 293 290 291 288 289 295 289 289 288 288 291 286 285 289 285 281 283 287 289 290 290 290 291 292 291 290 290 292 292 293 293 293 294 294 293 292 292 292 292 293 292 292 293 292 291 291 291 291 291
300 300 300 300 300 302 304 301 305 301 300 299 302 304 302 302 304 309 309 308 302 293 289 288 290 288 288 284 285 289 297 294 296 296 294 292 293 296 295 290 286 289 294 290 286 291 287 292 288 284 288 284 283 285 286 290 290 290 290 291 291 292 292 291 292 292 293 293 293 294 293 293 292 292 292 292 292 292 292 291 292 291 290 290 291 291 291
301 300 298 299 303 303 301 297 301 303 302 302 303 301 300 302 307 307 306 304 305 303 295 289 289 288 290 287 289 291 295 287 292 290 292 290 288 290 290 289 286 288 288 287 287 286 289 294 287 283 284 283 285 290 291 291 291 291 291 292 293 293 292 292 293 293 292 292 292 292 292 292 292 292 291 291 292 292 291 290 290 290 290 290 291 290 290
301 300 303 302 301 293 291 295 301 303 301 301 302 302 303 301 295 294 295 293 296 298 293 295 288 289 294 289 287 294 294 289 294 288 289 291 287 288 290 288 287 286 283 285 287 292 289 287 284 284 284 289 291 291 292 292 293 293 293 293 293 293 293 293 293 292 290 289 290 291 291 291 291 291 291 290 291 291 290 291 292 292 292 291 291 291 291
301 302 302 301 298 293 294 300 305 299 304 303 303 297 291 293 292 289 289 291 291 290 293 293 289 293 292 289 290 296 293 288 288 290 286 291 286 285 288 283 288 287 284 284 285 292 284 285 285 284 284 288 288 291 292 293 293 293 294 294 294 294 294 294 294 292 291 290 291 291 291 289 289 289 291 291 292 292 293 292 292 292 291 291 291 291 291
303 299 294 295 294 297 303 303 300 302 302 296 296 293 287 291 288 284 291 288 287 290 292 288 293 293 293 290 289 290 297 292 287 286 287 289 294 285 288 287 288 284 280 281 284 291 283 280 284 283 283 285 287 291 292 292 292 293 294 294 294 295 295 294 294 295 294 294 294 293 294 293 293 292 292 292 292 292 292 292 292 292 292 292 291 289 290
300 300 298 294 299 302 302 304 305 303 296 291 289 289 288 284 289 289 288 286 286 287 293 292 293 292 293 294 293 288 296 298 296 295 290 286 292 291 286 283 289 282 281 281 286 287 285 283 282 282 282 286 288 291 292 292 292 292 294 294 295 295 295 294 295 294 294 293 293 293 294 293 293 293 293 293 293 292 292 292 291 291 292 292 292 292 292
300 298 301 304 302 303 302 300 298 292 290 291 286 282 286 286 289 288 289 285 285 288 290 290 287 289 290 292 292 293 293 297 293 290 289 285 289 286 284 286 286 281 278 285 288 286 284 279 280 281 285 287 291 291 292 291 292 292 293 294 294 294 294 294 294 294 294 293 293 293 293 294 294 294 293 293 293 292 293 293 292 292 291 292 292 292 291
297 299 302 301 298 295 296 290 291 290 282 282 283 280 285 282 285 285 285 288 290 291 290 296 295 296 296 297 294 296 292 297 291 290 288 285 289 288 285 283 282 278 283 288 286 283 280 279 279 283 287 289 290 291 292 292 292 293 293 294 294 294 295 294 294 293 294 294 293 293 293 293 293 294 294 294 293 292 292 292 292 292 293 293 292 292 290
303 302 298 294 291 290 291 279 290 286 283 285 282 278 281 281 283 285 284 287 289 289 292 290 290 290 287 292 290 290 291 294 292 290 288 289 286 284 283 279 281 286 290 284 283 280 281 283 284 286 289 290 291 291 291 292 292 292 293 294 294 294 294 294 294 293 293 294 294 294 294 293 294 294 294 294 293 292 293 293 293 292 293 292 292 291 291
295 291 291 289 286 288 286 279 289 285 279 282 285 284 284 282 284 287 286 289 292 290 292 293 292 292 288 293 293 292 290 287 292 286 284 286 283 285 281 280 285 285 282 279 281 282 282 281 286 287 288 289 290 291 291 291 290 289 291 293 293 293 293 293 293 293 293 293 293 293 293 293 293 292 293 292 293 294 293 293 293 292 292 292 292 291 292
291 289 288 283 279 285 285 281 284 281 286 287 286 290 288 288 288 289 292 295 293 293 292 292 292 293 289 292 287 287 290 290 286 286 287 286 281 279 285 289 287 281 280 280 278 278 280 283 286 287 288 289 290 289 288 291 293 293 293 291 292 293 293 293 293 293 293 293 293 293 293 293 293 292 292 293 293 294 294 294 294 294 293 292 291 291 291
291 291 290 288 284 285 288 282 284 288 288 290 291 292 291 292 293 293 294 295 293 294 294 295 293 292 288 289 289 289 289 289 285 287 288 282 281 284 287 282 277 279 276 275 277 279 282 285 287 287 289 289 289 290 289 291 292 292 292 293 293 293 293 293 293 292 293 293 293 293 292 293 293 293 293 293 293 294 293 294 295 294 293 292 292 292 291
288 291 290 282 281 285 283 287 293 292 293 293 293 294 294 294 293 292 295 295 295 295 293 292 289 290 289 292 290 286 287 288 284 285 287 284 286 282 280 279 278 281 281 279 280 284 285 286 287 288 288 289 288 287 288 291 292 292 292 292 292 293 294 294 292 293 293 293 292 292 292 293 294 294 293 293 293 295 295 294 294 294 293 293 292 292 292
292 290 287 286 287 288 288 291 291 289 290 292 293 293 292 292 291 292 295 296 294 293 294 292 290 289 285 289 287 286 283 287 281 282 286 283 279 276 276 274 276 276 282 284 284 285 286 288 289 291 290 291 289 288 291 292 292 292 292 292 292 292 293 293 293 293 293 293 293 293 293 294 293 293 294 295 293 294 295 295 294 294 293 293 293 292 292
290 289 290 288 287 289 292 291 290 287 290 291 291 290 292 291 291 292 295 294 295 294 293 291 291 287 287 287 283 285 284 286 284 285 282 280 280 281 279 276 279 279 282 286 286 287 289 289 289 288 290 291 291 289 290 291 291 291 294 295 295 293 293 293 292 293 293 293 293 293 293 293 293 293 293 294 295 295 294 294 294 293 294 294 294 293 292
293 291 291 295 289 288 289 285 286 285 286 287 289 290 291 290 291 292 296 295 295 291 289 287 287 286 284 284 282 278 281 287 284 282 281 280 283 281 279 278 281 285 286 289 289 288 289 289 290 290 289 290 291 290 292 293 293 294 294 294 294 295 293 293 293 293 293 293 294 290 292 292 293 294 294 295 296 295 294 293 293 294 294 294 295 294 293
289 287 288 291 294 293 292 291 290 289 290 291 290 292 292 291 293 294 296 294 292 287 286 289 287 285 283 280 282 285 287 284 281 282 280 283 285 281 281 283 284 286 288 288 289 290 289 290 290 288 290 290 290 292 293 294 294 293 293 293 294 294 294 294 293 293 293 293 293 293 293 293 294 294 294 294 295 295 294 293 293 293 293 294 294 295 294
Wind_Speed
23 24 25 26 26 25 25 25 24 23 24 11 9 9 6 3 5 4 1 2 5 6 7 8 7 9 9 9 7 8 5 7 11 11 9 9 10 10 8 9 10 11 10 8 9 6 7 9 7 7 5 5 9 5 7 5 7 11 5 8 4 4 3 7 10 9 8 8 8 5 8 9 11 10 9 9 11 8 10 8 6 4 5 7 6 7 4
23 24 25 26 26 26 26 25 24 22 19 10 10 8 5 3 3 4 5 3 4 5 4 5 6 8 12 6 8 8 9 8 11 12 8 8 9 12 8 9 10 10 7 7 8 6 5 7 9 6 16 5 7 13 11 6 5 4 6 6 6 4 3 5 4 5 4 12 9 9 7 8 11 10 10 13 10 13 11 5 5 4 7 8 4 8 3
22 23 26 27 27 26 26 25 24 23 20 13 6 6 6 4 2 3 4 1 4 5 5 5 4 7 7 6 10 10 7 7 8 8 10 10 7 3 6 8 4 8 7 10 9 10 8 5 7 8 6 8 7 8 9 8 9 3 8 4 7 4 2 3 5 6 7 6 6 3 4 10 10 11 13 7 12 13 8 8 4 9 7 9 7 1 6
21 22 25 26 26 26 26 25 25 24 19 15 7 7 7 3 3 4 1 3 3 2 3 4 7 4 6 5 5 6 8 3 5 10 3 4 5 6 7 5 6 10 9 9 10 11 9 9 4 5 6 4 4 3 6 7 8 9 8 7 8 3 4 8 8 7 5 2 6 10 13 9 10 14 11 11 9 11 12 10 7 9 7 10 10 4 10
21 22 25 24 26 26 25 26 26 25 22 15 7 8 5 3 3 4 4 3 2 3 5 7 5 3 4 3 1 6 7 5 4 3 7 5 7 5 6 7 5 7 9 9 10 11 12 10 10 7 9 4 4 3 3 6 12 7 7 8 4 3 3 6 7 7 3 4 4 9 14 16 11 9 8 6 6 6 7 7 9 8 3 6 9 13 12
21 22 24 25 26 25 25 27 27 26 26 19 7 6 4 2 3 3 4 5 5 4 5 8 5 7 4 1 4 5 4 5 3 4 5 2 4 6 4 8 9 9 8 8 7 8 10 9 7 7 6 2 5 6 9 6 6 8 8 9 7 7 5 9 8 7 6 3 5 5 7 12 11 8 5 2 2 5 6 1 1 2 4 1 4 6 11
20 22 24 25 25 25 25 26 27 27 28 21 6 5 3 3 2 4 3 1 5 6 5 6 6 8 11 3 6 3 2 3 3 2 4 5 1 6 0 7 5 7 7 6 7 5 9 5 2 3 6 7 4 6 7 7 11 7 6 8 4 4 3 10 10 7 5 4 3 6 4 6 6 6 8 8 6 9 7 8 8 5 9 12 14 14 11
20 21 23 24 24 25 25 26 27 28 30 18 4 8 6 5 5 3 2 4 4 5 4 4 5 7 12 3 10 7 5 5 4 5 4 2 3 7 1 3 2 2 4 4 1 7 7 6 1 3 5 2 5 1 3 4 10 9 8 6 6 8 2 4 6 7 5 6 3 1 3 4 5 7 7 11 8 8 10 9 11 9 10 11 14 14 11
20 21 22 24 24 24 25 25 26 28 27 5 7 6 7 4 4 3 5 4 6 2 7 5 6 6 8 5 8 7 7 3 3 9 8 7 5 6 4 6 2 7 8 9 9 7 6 5 5 2 4 3 1 5 4 5 4 9 7 6 6 5 2 6 6 5 5 7 8 6 4 2 6 8 8 6 9 7 8 7 8 8 6 9 12 7 5
20 21 22 23 24 25 24 24 25 26 26 7 7 7 5 3 2 3 5 3 3 3 6 5 4 6 4 2 3 5 7 9 4 2 8 10 10 9 8 5 4 6 7 9 9 7 5 4 4 4 3 4 2 2 2 3 3 4 5 3 3 3 4 5 5 6 5 6 7 7 4 1 6 9 10 5 6 5 5 8 10 9 8 4 3 6 7
19 20 22 22 23 24 24 23 23 24 15 8 8 7 7 7 6 5 5 1 3 5 5 8 8 1 2 1 4 6 7 8 9 3 2 9 10 11 9 10 5 6 9 8 7 5 5 4 3 3 3 2 1 0 1 1 2 3 1 6 5 5 7 5 6 6 3 6 7 6 4 10 8 4 5 4 4 4 4 5 6 8 8 5 7 9 8
19 20 21 22 23 24 23 23 22 21 17 8 7 5 6 7 6 6 3 3 3 5 7 7 7 5 6 6 4 6 7 9 9 8 7 7 10 11 11 10 9 4 9 7 5 4 3 4 4 3 2 1 2 2 3 3 3 2 3 4 3 7 6 5 5 5 3 6 7 4 8 6 7 3 3 4 6 9 10 7 6 7 7 10 11 10 10
19 19 21 22 22 23 22 22 22 21 20 11 7 7 6 6 6 6 5 3 4 6 5 7 6 7 7 5 5 5 3 3 4 5 6 9 9 11 10 9 9 8 9 8 6 4 4 3 3 4 3 4 3 4 3 3 2 2 4 3 4 1 6 0 3 2 4 4 5 5 1 5 2 4 3 5 8 11 12 8 5 5 7 9 11 10 10
18 19 20 21 21 22 22 22 22 22 20 15 7 7 6 7 6 6 4 3 4 6 6 5 7 8 7 7 6 3 10 10 4 1 3 1 6 9 10 9 9 8 7 6 6 5 4 2 2 3 7 7 7 6 6 3 3 1 1 0 4 3 2 4 4 3 5 3 6 2 5 5 6 4 6 5 6 10 5 4 5 5 7 9 11 12 11
17 18 19 20 21 21 22 22 22 22 21 19 8 5 7 8 7 6 6 1 5 7 9 6 6 7 6 7 9 5 5 4 5 5 5 3 4 3 3 8 8 8 8 9 5 5 2 3 4 5 4 4 6 7 6 8 4 1 1 2 2 3 1 2 4 4 1 4 6 6 5 7 5 3 6 5 6 7 6 11 7 4 6 10 12 12 13
17 18 19 20 21 21 22 21 22 21 20 22 8 6 6 7 7 7 5 4 2 4 7 6 5 7 5 7 8 8 4 3 5 4 5 3 6 3 4 7 6 7 8 7 5 3 2 4 5 4 5 6 6 2 2 4 3 5 3 4 5 3 4 2 3 1 3 4 6 3 4 2 1 3 2 4 4 3 4 4 7 4 5 7 9 11 11
17 18 18 20 20 21 21 21 21 21 20 19 9 6 7 9 8 8 6 7 8 7 7 8 4 4 5 6 6 6 7 5 6 5 3 4 6 7 7 7 4 5 6 7 4 4 5 5 7 6 3 2 3 3 6 2 4 3 5 7 7 8 5 4 5 6 6 6 6 5 3 3 1 5 2 1 2 2 4 7 7 7 7 8 8 8 8
17 17 17 19 20 20 21 21 21 21 21 21 11 6 7 9 9 9 4 4 4 7 8 10 10 7 7 6 6 6 5 5 6 1 4 2 5 7 7 6 6 3 7 5 3 3 2 3 4 4 3 5 4 1 4 2 1 3 2 2 5 5 5 5 9 8 6 8 6 3 4 4 4 3 4 2 2 4 5 3 8 6 6 6 7 6 4
16 16 17 18 19 20 20 20 21 21 21 21 13 2 7 9 10 11 4 5 5 6 8 9 8 10 8 5 7 6 6 7 7 3 5 3 6 9 8 2 5 4 6 3 4 1 2 3 4 3 4 2 4 2 1 1 3 3 3 6 4 3 3 4 4 7 7 4 8 0 5 4 8 4 4 5 5 4 2 6 6 7 5 7 7 6 4
15 15 16 17 17 18 19 20 20 20 21 20 14 4 5 9 8 9 9 6 5 7 7 9 10 12 10 11 9 9 8 7 9 6 6 6 8 13 7 4 6 7 4 6 1 3 3 1 2 3 5 3 2 4 1 1 2 4 3 4 3 4 2 5 3 2 3 3 6 3 1 2 5 1 6 4 2 5 6 9 9 7 8 9 7 6 7
14 14 15 16 16 17 18 19 20 20 21 21 15 6 6 6 7 8 7 7 2 4 6 7 9 10 10 11 11 11 11 10 10 9 8 7 9 7 5 4 7 5 4 5 4 3 3 4 2 3 3 5 4 4 2 1 3 6 6 3 4 6 5 4 3 5 3 4 2 4 4 2 2 3 4 7 8 7 7 6 9 8 8 8 6 7 5
13 13 14 15 15 17 17 18 19 19 20 21 21 8 4 4 4 4 7 6 7 5 5 6 7 8 8 9 8 9 10 11 10 9 9 6 6 7 4 5 6 6 5 6 4 2 3 0 3 3 2 1 2 3 2 3 2 3 4 4 4 8 4 4 3 6 2 4 4 4 4 6 7 8 8 8 7 6 6 8 8 7 7 7 6 6 6
12 12 13 14 15 16 17 17 18 19 19 21 17 5 6 4 3 6 8 4 4 4 4 4 3 5 6 9 6 6 7 8 8 8 9 9 2 5 7 6 6 5 5 6 7 6 4 6 2 5 3 4 5 2 2 4 0 1 1 7 6 5 4 6 8 9 12 10 7 6 6 8 9 9 8 9 9 8 8 9 8 7 6 6 5 5 5
12 12 13 14 15 16 16 16 17 18 19 19 14 6 4 4 5 7 4 1 1 3 4 4 1 4 6 8 6 6 7 8 8 7 8 9 6 2 5 7 7 2 5 6 6 7 4 3 5 4 2 4 6 4 2 0 4 1 1 3 4 4 1 0 2 8 4 5 6 7 7 7 7 8 8 8 6 7 6 8 7 7 6 7 6 5 5
12 12 13 13 14 15 15 15 15 16 17 18 15 5 3 2 5 6 6 0 1 2 2 2 4 5 4 2 3 6 6 3 4 7 8 8 9 7 6 6 6 7 5 6 4 6 2 3 2 1 1 3 6 1 2 4 2 5 3 2 1 4 4 2 3 2 1 9 9 8 8 7 7 6 6 7 7 7 7 7 7 6 6 5 5 5 5
12 12 12 13 14 14 14 14 15 15 15 18 17 6 5 5 6 7 5 3 2 2 1 2 4 2 1 4 6 4 4 6 6 4 7 6 5 5 4 2 2 1 3 3 5 4 3 1 2 3 3 3 5 4 4 3 1 3 3 2 5 3 5 1 3 6 9 11 10 8 9 7 7 7 6 7 6 6 7 7 7 7 6 5 6 5 5
12 12 12 13 14 14 14 13 14 14 15 15 10 5 4 4 6 7 7 6 6 2 1 4 3 4 4 6 2 2 5 4 5 5 6 7 7 4 4 5 4 1 3 1 2 2 0 2 4 4 5 4 5 5 4 2 2 1 0 4 1 5 1 3 3 5 4 4 7 7 3 5 7 5 6 5 5 5 5 3 3 2 2 2 1 2 3
12 12 12 12 13 14 13 13 12 13 13 14 9 3 3 4 5 6 6 6 6 4 4 2 4 5 1 6 4 4 6 6 6 4 5 6 6 6 6 6 5 5 4 4 0 2 3 2 3 0 0 4 5 2 4 5 3 3 4 2 4 5 5 4 1 1 3 6 6 2 5 7 5 6 6 4 3 3 2 2 2 3 2 2 2 3 3
12 12 12 13 13 13 13 12 12 12 12 12 6 3 1 3 3 5 7 5 6 6 3 4 2 4 1 6 4 4 5 4 5 5 3 4 5 4 4 5 6 5 3 1 1 1 3 3 3 4 4 5 5 0 3 3 1 1 5 2 2 3 3 6 6 8 7 5 5 5 4 5 8 7 4 3 1 1 3 3 3 2 4 3 3 4 3
12 13 13 13 14 13 12 12 12 11 10 6 4 4 3 4 3 6 7 7 6 5 3 1 1 3 2 1 3 4 4 5 4 4 6 4 4 5 6 5 5 5 3 2 4 2 2 3 2 3 2 2 4 2 3 2 2 5 2 3 3 3 4 3 2 1 6 6 7 3 4 4 3 2 2 2 2 4 4 4 6 4 3 6 5 3 3
13 13 13 13 13 12 11 12 12 12 9 6 5 3 3 2 6 6 10 7 6 5 3 3 3 2 2 3 2 5 5 5 4 4 3 2 1 3 4 6 4 6 4 1 2 3 2 2 1 3 1 4 3 3 0 2 1 3 4 3 2 4 4 5 4 5 5 5 4 3 3 2 0 1 2 1 1 3 3 2 4 2 4 5 5 3 2
13 13 13 13 12 11 11 11 12 12 7 5 6 5 4 5 6 8 9 8 7 5 3 2 1 2 2 2 2 1 3 4 5 4 4 5 4 4 0 5 4 5 4 4 2 1 3 1 2 3 3 4 3 3 3 1 1 4 5 4 4 4 3 3 4 4 4 3 3 3 2 2 2 5 6 2 1 2 4 3 3 6 7 3 2 2 2
14 14 14 13 11 10 10 10 9 7 3 6 6 10 9 5 6 8 7 7 5 4 3 3 1 1 2 5 3 3 5 6 3 5 4 5 4 5 0 3 2 3 3 6 1 2 2 0 2 2 5 1 3 2 7 1 3 6 7 5 5 4 4 4 3 4 3 2 2 1 2 4 4 3 0 1 1 3 1 3 3 2 4 4 4 3 3
15 15 13 11 9 8 8 6 5 4 2 4 3 3 5 9 5 3 7 5 4 2 2 1 2 2 3 2 3 5 6 6 4 5 1 5 3 4 2 3 3 1 2 5 3 4 4 2 2 3 1 2 1 2 1 2 4 2 4 6 5 4 4 4 3 3 3 3 2 4 4 3 1 0 1 2 3 2 3 4 4 3 4 4 4 4 2
16 14 12 10 8 6 4 5 5 5 5 2 1 4 5 8 8 9 7 5 2 2 1 1 3 1 1 2 1 5 3 5 3 3 3 3 1 6 3 3 2 1 4 3 3 2 2 3 4 4 1 4 0 0 2 1 4 3 2 3 5 5 5 5 4 4 3 2 1 2 1 1 1 2 2 2 2 1 3 3 3 4 4 4 3 2 1
14 12 9 7 5 7 4 5 5 4 3 1 5 5 7 8 8 6 4 4 5 3 2 2 3 1 1 0 1 2 3 2 3 1 4 3 2 3 3 3 1 5 3 2 3 1 1 5 3 2 2 2 1 1 2 2 1 3 3 4 4 6 6 5 4 4 4 1 2 3 3 3 4 4 3 3 2 2 2 3 4 3 4 4 4 2 1
12 8 3 2 4 5 5 1 2 3 4 4 6 10 10 8 5 5 5 4 5 3 4 2 2 3 4 3 1 2 3 1 3 3 2 3 3 0 3 3 2 3 2 4 1 2 3 0 2 3 3 2 0 2 2 2 2 2 3 4 4 5 5 4 5 5 4 4 3 2 2 4 4 3 4 3 1 2 3 4 4 4 4 5 3 1 2
9 7 4 6 5 2 1 1 1 3 4 5 4 4 4 5 2 2 2 1 2 3 1 3 3 2 1 2 1 4 5 1 1 2 1 2 3 0 1 2 3 2 3 2 3 2 2 1 3 3 3 3 3 2 1 2 3 4 3 3 3 5 5 4 4 5 4 5 6 5 3 2 3 4 5 3 3 3 3 4 4 3 5 4 2 3 4
8 5 6 4 3 0 2 5 4 2 4 3 4 2 2 1 1 1 1 2 2 2 0 3 2 1 3 1 4 3 5 4 4 2 2 4 3 1 2 4 2 2 3 2 3 3 3 2 2 2 3 3 3 5 1 3 3 4 5 5 4 4 4 4 5 6 5 4 4 6 6 6 8 8 6 3 3 3 3 4 3 5 3 2 3 2 3
6 4 1 2 0 3 3 6 5 3 4 2 2 2 1 2 2 2 2 2 1 2 1 1 3 3 4 5 3 3 2 5 4 4 4 1 2 4 2 2 2 2 3 3 2 1 3 3 2 2 2 2 3 3 3 3 4 2 3 5 6 5 5 5 6 3 2 1 1 2 3 3 4 4 3 3 3 5 5 5 6 5 3 1 4 4 4
2 1 2 1 4 2 2 3 4 3 2 1 1 0 0 0 0 1 1 3 2 2 2 2 3 3 2 1 3 2 5 2 2 2 3 2 3 4 2 2 2 3 2 2 2 2 2 3 2 3 3 4 1 3 3 3 2 2 3 5 4 5 6 6 5 4 4 3 1 0 2 3 3 3 1 2 3 3 5 6 5 3 2 3 3 3 2
5 5 5 3 1 1 2 3 3 2 0 0 1 0 0 0 1 2 2 1 2 2 4 2 1 1 3 4 4 5 2 4 3 2 2 2 2 3 2 2 0 2 3 2 1 3 2 3 3 2 5 2 3 2 3 3 2 2 2 2 3 5 6 6 6 5 3 2 1 1 1 2 2 4 1 2 3 4 5 6 5 4 4 2 2 3 0
7 6 5 3 3 2 2 2 1 1 1 0 0 1 1 2 2 1 2 1 0 1 3 2 1 1 2 3 3 1 3 3 3 1 2 2 1 2 2 2 1 4 2 2 3 2 3 3 4 1 1 2 2 2 1 2 3 3 0 1 3 5 6 6 6 4 2 1 0 2 1 1 2 2 1 4 4 4 5 3 2 4 3 3 2 1 1
2 3 3 1 1 0 1 0 1 0 1 1 3 3 3 3 4 2 2 3 2 1 3 3 1 5 0 3 3 1 2 4 1 2 2 0 1 1 1 3 3 1 2 4 2 4 3 2 3 2 2 2 1 2 3 4 5 5 2 4 5 6 7 6 4 4 4 2 1 1 1 2 4 2 4 3 4 6 6 6 6 3 2 3 3 1 2
2 2 1 1 0 1 0 1 2 2 3 3 2 2 3 3 3 2 2 2 2 3 2 1 3 2 3 1 2 1 1 2 1 2 1 1 3 2 2 3 2 2 4 4 3 3 2 3 1 0 1 0 2 3 4 3 2 3 5 5 5 7 7 7 6 6 5 4 2 2 2 2 3 2 3 4 5 6 6 5 4 4 5 5 3 2 3
2 2 3 2 0 3 1 1 1 3 1 2 3 2 1 3 2 3 3 2 1 1 1 2 3 3 4 1 1 1 1 2 3 1 2 2 3 4 2 3 2 4 4 5 5 5 4 2 1 0 1 2 3 3 1 3 4 4 4 5 5 7 8 8 7 6 5 4 3 3 1 2 3 2 4 5 6 7 6 5 1 2 3 3 2 2 2
1 1 2 2 0 1 2 3 3 1 3 3 2 2 3 2 4 4 4 2 1 1 3 1 3 2 4 3 3 2 2 1 2 1 1 3 2 1 0 3 4 3 4 5 5 4 3 1 1 1 3 2 1 1 3 6 5 5 5 5 5 6 8 9 8 7 6 5 5 5 3 2 3 3 3 5 7 7 6 6 5 5 4 4 2 2 2
2 0 2 2 3 3 5 2 1 2 1 1 3 1 2 1 3 3 3 1 1 2 2 3 3 1 3 2 2 3 3 2 3 3 1 2 1 2 2 3 4 4 4 5 5 2 2 2 1 0 0 1 0 1 3 5 4 5 6 6 6 6 6 7 8 8 7 7 6 5 4 3 3 3 3 5 7 7 7 7 6 6 5 4 4 3 3
2 2 1 1 1 2 1 2 4 4 3 2 2 3 3 4 2 1 2 1 2 1 2 3 2 2 3 0 3 2 4 0 2 2 1 2 2 3 2 3 3 5 3 3 3 2 2 2 2 4 3 5 1 1 6 6 6 5 6 7 6 7 7 7 8 9 9 7 6 6 5 4 4 3 3 4 6 7 6 6 7 6 5 5 5 4 4
2 2 1 2 3 3 3 2 4 3 4 3 3 2 2 3 2 3 3 2 1 2 1 2 1 2 1 1 3 2 3 2 2 1 4 5 4 4 4 7 6 6 4 2 3 2 3 2 2 2 4 5 5 4 7 7 6 8 8 7 5 5 6 7 8 9 9 7 7 7 6 5 4 4 4 4 5 5 7 7 7 7 6 5 5 5 4
1 2 2 1 3 1 2 4 3 3 3 3 3 1 1 2 1 0 2 2 1 2 2 3 1 2 2 2 2 3 1 2 3 5 5 5 3 4 6 7 6 5 4 3 3 3 3 3 3 3 3 6 6 4 7 8 8 10 8 7 7 7 5 6 8 8 9 9 8 8 8 6 5 5 3 4 4 5 7 7 7 7 6 6 5 5 5
1 3 3 3 5 3 3 2 1 2 2 2 2 1 2 3 2 1 3 3 3 3 2 0 2 2 2 4 2 1 1 2 3 3 5 4 2 6 5 5 5 4 5 6 5 4 4 3 3 3 5 6 5 6 7 8 8 8 8 8 7 6 6 6 6 7 8 8 9 9 7 7 6 5 4 4 5 5 6 7 7 8 7 6 6 5 5
Wind_Direction
346 346 345 344 343 341 340 339 339 342 342 339 348 323 267 334 34 73 4 136 241 254 252 242 240 233 235 246 249 267 209 252 253 255 224 229 226 245 210 236 241 236 266 265 266 256 250 251 239 137 268 154 224 231 268 297 193 213 115 105 96 138 233 238 255 258 298 290 271 303 279 271 253 250 266 230 230 244 247 258 357 315 233 232 237 242 105
346 346 346 344 343 341 340 339 339 341 350 332 309 294 305 355 13 125 85 178 243 265 280 266 239 238 249 261 276 254 256 234 233 238 235 240 206 217 235 246 237 271 246 270 274 255 265 242 263 212 146 156 155 169 226 241 237 196 174 211 120 209 160 276 261 258 257 266 215 232 224 244 243 244 228 242 243 239 256 223 185 242 249 274 253 249 136
346 346 347 345 344 343 339 339 338 341 342 338 309 309 340 292 238 275 59 309 221 290 328 315 313 307 290 262 259 245 229 248 283 282 261 234 263 303 257 262 282 245 251 257 253 267 273 280 244 269 259 127 180 148 215 205 260 214 50 91 133 233 170 215 252 250 248 243 253 266 260 237 229 238 247 270 252 251 255 245 237 243 236 259 252 144 91
347 345 347 347 345 343 341 339 340 339 340 339 303 283 287 340 332 18 116 38 12 17 2 324 308 297 280 261 259 250 253 251 248 247 237 324 272 260 276 275 257 262 260 252 250 251 231 250 267 231 235 147 154 139 194 207 218 88 116 148 198 207 164 219 225 244 242 209 280 298 311 300 263 235 229 246 251 251 258 267 255 248 233 234 237 206 150
345 346 350 350 348 346 343 342 340 339 334 341 321 289 292 328 7 351 356 309 57 333 27 357 326 308 349 277 5 269 252 222 230 209 249 185 270 244 244 273 257 252 254 257 256 247 250 219 243 260 252 154 97 145 105 89 95 108 144 176 140 183 193 166 165 175 195 156 257 295 323 330 266 235 216 235 231 214 245 249 252 277 314 246 347 150 140
345 349 353 353 351 349 347 344 342 339 333 330 307 294 350 319 56 354 31 324 15 335 23 351 9 2 270 233 305 279 263 221 221 243 249 213 226 256 216 251 248 256 248 241 246 244 256 245 241 241 263 75 163 171 160 162 150 175 171 166 206 206 205 162 162 148 134 85 91 58 360 329 4 21 32 28 205 196 192 65 337 283 255 216 31 35 112
348 351 355 355 353 352 350 346 343 340 333 325 286 325 87 23 68 57 287 302 43 30 22 358 28 37 357 52 17 43 23 85 69 334 267 228 39 282 340 279 281 254 251 256 241 249 232 221 13 358 291 239 207 210 142 128 153 206 172 188 188 229 215 164 204 178 170 154 95 53 63 347 351 7 2 17 62 72 78 65 49 80 97 106 117 107 79
351 353 356 356 355 355 353 350 347 341 338 320 34 26 352 42 332 44 57 64 51 46 47 44 51 57 14 21 8 352 39 43 76 56 40 50 3 340 219 269 10 313 259 243 254 52 39 16 173 35 324 337 321 82 234 202 180 192 196 187 143 247 105 168 192 212 202 193 203 184 62 357 328 309 347 348 2 59 49 55 28 81 94 101 100 97 93
353 353 356 357 357 356 356 353 351 344 342 351 29 57 18 17 356 339 314 51 8 7 44 18 58 59 36 37 359 349 28 26 40 67 51 59 30 16 6 329 34 54 62 56 56 35 28 35 31 344 360 295 103 304 153 316 199 192 166 190 145 221 140 184 185 227 216 209 210 201 212 351 311 304 300 331 354 18 22 43 14 33 74 137 110 93 100
353 353 354 356 357 357 356 356 354 351 334 3 11 37 357 301 153 230 299 37 2 358 100 100 63 58 38 35 335 7 347 352 339 86 25 31 23 18 3 346 288 68 45 38 24 8 356 2 345 347 308 302 283 344 357 291 292 232 163 292 217 229 163 191 187 223 236 182 208 194 159 251 271 256 248 107 75 73 51 40 27 22 352 18 120 78 97
353 353 353 355 357 356 357 356 356 356 349 19 357 17 360 357 338 327 291 12 63 56 61 66 63 121 157 151 9 35 18 17 21 25 37 7 22 12 18 14 17 62 30 3 351 335 331 310 302 279 286 296 184 142 195 191 323 328 174 184 220 231 212 219 197 240 240 161 168 168 199 225 239 52 91 123 147 152 75 51 39 36 33 58 75 102 102
354 353 354 355 355 356 355 356 355 356 355 337 322 6 11 334 302 282 313 52 67 57 66 52 34 76 75 110 87 38 28 27 24 18 32 15 10 11 18 26 17 33 4 334 328 321 280 266 240 217 249 187 231 145 110 63 42 328 300 317 203 226 230 241 219 220 232 152 152 197 227 229 57 170 107 94 102 113 101 95 78 89 91 94 91 93 95
354 354 354 354 354 355 353 354 354 354 354 340 331 18 360 335 302 325 5 18 45 26 55 65 38 33 35 55 110 128 132 73 23 352 21 2 8 4 6 7 7 9 332 339 331 287 251 204 177 198 167 181 169 171 171 141 37 33 6 353 327 232 236 213 306 177 105 146 183 213 182 71 154 104 149 130 136 131 110 83 79 106 116 113 107 111 112
355 355 355 354 354 353 353 353 353 352 351 346 329 17 358 352 343 345 12 27 62 32 332 86 35 27 16 13 350 138 159 168 153 198 71 347 28 352 342 350 356 333 330 325 295 272 273 240 201 181 206 200 186 216 161 108 83 38 57 15 347 321 139 214 225 184 208 210 210 194 99 152 126 140 146 180 161 176 202 175 117 118 141 132 128 128 126
357 356 356 355 353 354 353 352 351 350 348 345 306 13 18 4 349 340 328 320 81 57 28 39 8 349 7 19 356 352 42 4 167 178 116 207 79 120 297 327 333 330 315 300 274 213 207 249 237 231 227 216 213 224 189 222 140 343 347 295 316 355 308 27 231 201 232 259 239 182 185 235 159 89 81 16 21 18 33 103 101 105 116 130 136 138 140
357 357 356 355 354 353 353 351 351 349 350 344 325 39 30 8 327 306 328 358 327 59 31 18 358 322 3 32 14 11 5 342 354 301 169 73 23 356 30 338 325 310 307 288 268 292 288 251 241 226 225 239 242 23 272 177 186 161 246 228 225 212 234 273 274 245 226 239 267 248 249 61 78 91 11 25 2 323 335 219 134 140 140 138 137 135 140
356 355 355 355 354 352 352 351 350 351 349 354 338 19 29 9 348 337 353 61 61 70 32 15 351 336 13 35 20 26 1 10 346 357 7 19 21 8 14 348 292 274 317 297 296 255 222 216 246 252 222 119 228 212 235 208 209 177 173 212 213 206 207 208 233 258 241 249 250 265 49 100 69 79 10 22 350 357 270 219 161 156 159 160 143 146 145
354 354 355 354 353 351 351 351 351 349 351 347 339 356 32 3 352 333 309 68 77 74 45 24 22 29 31 6 12 12 352 358 345 330 304 102 37 8 6 2 349 66 301 298 290 254 289 290 267 255 248 89 322 339 254 3 206 246 222 244 223 222 239 220 239 237 235 237 251 127 119 90 66 41 345 66 216 271 208 239 113 160 141 178 126 132 124
354 354 356 355 352 352 351 351 350 349 349 349 334 293 35 359 353 342 343 64 68 73 44 34 42 40 20 28 23 3 27 352 342 359 353 355 23 335 313 19 320 350 346 354 322 321 280 223 243 257 271 147 223 271 355 190 201 244 226 228 221 227 245 245 243 244 248 234 240 145 73 10 340 335 9 3 291 201 126 102 128 116 117 56 77 109 105
352 353 355 355 354 352 352 350 350 349 348 347 344 26 36 1 358 3 352 65 72 75 50 40 30 50 41 32 29 25 17 30 4 8 18 9 355 313 252 181 43 343 8 335 64 359 321 291 342 315 262 219 72 348 89 176 335 311 304 334 297 24 325 259 249 311 259 247 249 160 122 80 313 359 131 334 351 80 122 132 116 125 106 111 104 103 101
353 354 354 355 355 354 353 351 350 349 348 344 345 317 58 18 4 350 358 333 45 74 65 40 53 48 40 46 32 27 33 29 15 3 355 14 355 327 47 28 353 356 8 345 352 32 336 345 360 340 2 335 102 216 248 137 172 71 343 352 50 5 266 272 73 10 303 304 345 52 56 72 72 301 61 58 75 105 116 131 121 111 113 108 100 85 90
357 354 354 355 356 354 354 351 350 349 346 344 336 297 81 42 7 10 334 359 60 76 71 61 58 61 54 48 44 35 32 21 24 7 357 358 35 22 47 38 31 4 12 331 274 167 225 265 248 266 244 211 206 272 55 212 226 68 54 320 222 24 53 19 50 31 7 58 97 107 69 65 56 60 88 99 101 90 77 73 95 108 98 96 101 94 77
360 356 353 355 355 354 353 351 350 347 346 344 342 357 37 22 38 334 298 87 107 114 174 124 144 116 105 72 54 35 43 28 20 13 7 343 347 55 27 10 37 348 10 357 353 350 17 329 9 338 321 21 337 1 233 268 105 283 60 45 74 97 64 95 90 95 93 77 83 103 90 80 76 72 74 77 71 63 85 88 91 73 78 77 95 102 93
359 355 355 355 354 354 353 351 349 346 343 340 336 336 25 24 355 320 284 63 325 105 90 24 90 41 22 38 34 49 43 44 17 13 10 357 355 70 77 37 339 311 43 15 353 337 356 336 5 303 340 19 324 296 314 307 46 31 175 128 75 66 9 196 108 147 173 91 108 98 106 108 98 94 93 86 84 84 83 93 93 97 93 86 73 75 70
353 352 353 352 351 351 351 349 348 345 341 337 332 301 294 354 4 334 327 336 255 269 75 91 55 28 52 15 30 55 31 358 34 26 26 27 21 18 36 23 1 353 5 349 313 279 260 297 191 213 45 20 334 12 58 303 128 347 288 89 218 104 341 87 124 118 126 123 125 119 111 115 115 113 106 105 102 99 99 99 104 107 110 107 115 113 90
350 348 351 349 347 347 347 348 345 343 341 334 324 344 25 20 351 330 286 291 311 296 174 81 95 188 239 63 48 35 357 7 7 26 37 33 61 24 6 290 187 183 296 328 322 329 346 286 3 349 319 88 320 316 38 22 34 37 18 56 2 15 253 324 45 95 109 121 133 141 133 124 120 102 89 88 102 115 119 122 128 137 104 91 77 57 49
348 347 348 348 344 343 343 343 343 339 336 333 322 357 13 39 16 11 2 354 306 188 143 99 94 104 108 85 34 33 18 10 4 16 40 25 23 30 24 5 333 318 319 346 18 294 208 55 351 41 358 53 326 17 315 220 320 277 91 65 295 266 289 96 184 136 150 142 145 147 150 157 135 119 99 93 92 100 106 114 108 83 79 64 334 141 111
343 342 346 345 342 340 337 337 337 334 331 324 298 331 11 21 37 20 6 354 334 348 345 115 134 72 330 69 356 36 23 22 13 16 29 30 35 28 18 22 12 19 17 335 40 11 343 27 64 113 189 33 298 146 344 39 325 258 82 54 17 7 25 336 330 297 125 121 127 115 83 95 95 110 122 131 123 121 114 81 63 71 73 28 2 9 12
339 338 341 342 338 336 332 327 329 326 328 309 285 281 201 47 30 43 12 344 312 305 311 64 141 186 46 49 337 35 48 22 33 15 2 34 29 359 44 25 16 4 12 341 360 61 50 68 9 359 22 10 314 348 200 213 180 84 67 18 17 30 314 68 71 90 99 104 93 45 45 98 121 127 138 148 116 349 63 40 58 22 16 14 359 2 11
339 340 335 338 333 330 326 321 317 319 317 291 256 249 246 139 48 26 8 342 332 318 295 243 211 82 131 11 36 2 15 31 28 31 5 13 28 5 26 2 28 347 351 19 335 45 50 80 65 60 32 338 312 325 292 260 131 88 49 41 63 78 46 28 335 331 91 84 81 74 92 92 109 147 100 72 36 336 353 38 43 8 43 6 347 357 19
334 331 333 328 328 320 317 314 311 309 301 269 266 270 260 225 88 24 1 336 335 311 305 275 51 93 118 105 284 352 356 22 20 30 30 331 143 25 18 293 79 347 342 2 53 50 298 61 43 118 124 41 338 288 259 276 131 133 130 132 109 92 89 77 63 75 97 108 110 102 104 97 250 229 129 8 188 197 184 180 136 112 13 321 307 359 334
331 329 326 325 315 314 306 305 307 305 282 329 352 359 21 5 352 331 326 312 307 268 270 277 146 220 107 148 104 300 344 14 265 183 127 347 9 26 194 19 26 6 4 347 13 255 48 32 348 360 35 65 283 299 294 280 118 118 134 146 120 106 104 122 106 105 92 103 126 157 143 105 29 349 8 149 346 32 293 308 295 143 164 220 271 17 354
328 325 320 319 310 299 299 293 294 299 5 70 98 122 86 35 340 304 308 313 268 260 294 283 48 133 217 85 157 108 311 245 255 355 79 17 13 293 231 53 325 126 103 265 127 30 56 317 257 182 87 291 291 304 286 113 103 125 158 151 148 140 125 117 128 116 115 88 330 355 44 46 24 44 328 50 150 298 32 264 222 311 316 301 266 251 265
325 322 315 307 304 296 287 287 281 283 167 172 203 121 55 27 317 304 318 285 293 316 254 276 158 221 62 127 213 71 322 334 54 326 57 68 1 270 4 257 99 315 65 321 43 238 153 267 308 45 215 148 300 329 300 82 141 163 189 158 164 154 144 156 158 148 127 105 71 41 53 44 74 52 43 256 215 206 300 347 348 299 268 273 284 273 320
323 316 312 300 287 283 261 217 201 225 252 128 27 58 10 359 321 301 286 301 252 175 244 221 278 121 159 180 222 84 323 300 23 1 357 71 18 359 345 290 169 261 90 301 254 319 340 50 2 268 138 83 119 108 257 206 145 171 191 194 172 168 171 196 188 164 137 121 135 106 108 135 221 287 285 263 292 205 203 239 293 297 283 272 274 261 164
318 312 306 302 262 221 186 215 247 211 200 24 49 33 356 314 288 269 271 271 297 325 200 157 244 129 330 104 71 77 293 265 27 354 59 297 186 43 318 315 316 74 325 306 309 50 53 67 277 265 121 230 242 259 59 26 95 160 178 211 183 215 198 214 194 168 169 142 62 30 16 312 309 320 309 311 313 257 254 267 248 257 272 280 263 252 226
316 317 304 243 214 202 215 88 81 337 22 356 339 328 304 292 244 246 232 238 194 219 310 308 274 65 343 62 104 93 280 323 14 290 65 355 356 41 333 315 17 8 249 213 223 347 63 46 284 288 277 284 343 360 347 306 291 264 195 218 190 211 214 208 162 190 179 160 161 212 256 300 302 276 288 294 247 231 242 239 240 231 242 249 249 256 299
327 301 223 192 210 180 151 172 103 37 324 264 265 258 181 219 172 161 182 185 88 277 229 268 66 81 178 282 78 47 286 10 26 329 51 26 297 86 356 300 52 318 308 330 69 19 307 243 248 289 300 276 319 283 325 305 271 257 265 264 237 212 213 186 177 201 206 225 218 202 224 236 274 287 286 278 244 228 238 265 240 219 233 228 273 287 280
270 224 225 240 241 32 24 62 67 53 293 238 235 256 158 241 201 159 118 122 204 183 137 279 98 317 342 321 95 61 353 332 302 296 341 81 330 353 18 327 82 300 307 274 99 309 271 238 227 264 260 155 184 96 11 258 278 269 270 255 250 237 206 185 207 221 231 278 0 18 5 349 338 328 315 281 222 225 222 226 229 227 222 287 259 284 313
216 217 213 206 252 78 96 112 148 213 225 207 197 266 156 218 225 161 206 193 136 91 257 110 24 26 2 342 338 110 30 312 336 1 342 64 91 327 16 298 41 311 299 299 80 323 295 303 290 281 290 95 86 81 307 346 295 289 251 249 240 234 212 204 209 214 245 279 46 57 40 3 344 310 317 297 247 222 204 214 218 216 187 213 44 313 290
20 232 203 63 81 97 98 161 176 217 214 210 127 265 241 190 19 54 222 202 150 101 324 50 167 176 154 251 254 324 112 271 310 345 281 302 78 280 305 311 23 296 298 280 84 281 284 281 290 288 32 66 24 1 319 281 264 250 243 245 229 214 206 203 201 189 203 175 176 112 37 2 310 278 261 260 244 209 207 207 205 197 213 242 212 237 329
357 336 356 316 327 99 173 189 218 187 330 251 171 166 265 144 171 203 293 276 134 167 143 284 195 310 59 347 359 320 88 42 321 283 302 309 56 319 312 295 333 301 303 38 349 269 261 272 285 282 101 85 51 350 315 329 343 280 218 220 188 204 202 199 201 206 223 231 269 8 36 330 296 275 290 210 196 200 205 193 182 202 225 221 248 261 274
267 259 276 243 187 200 226 189 129 255 160 133 196 104 211 199 237 224 142 128 82 279 97 230 38 213 165 265 224 189 356 356 299 315 294 332 32 249 312 319 296 258 299 343 280 295 277 281 270 297 43 52 5 311 360 343 329 303 180 226 202 211 215 204 211 206 213 222 39 343 330 285 260 311 246 188 201 199 205 171 197 225 204 235 262 263 178
228 225 228 211 202 169 236 157 188 219 305 218 167 168 198 192 184 187 203 130 168 136 49 299 32 325 10 128 317 272 189 161 222 296 285 106 278 292 288 277 252 333 330 263 272 274 282 294 299 315 13 30 9 25 17 339 328 322 250 199 228 227 223 221 209 207 217 208 247 21 328 306 285 175 207 202 200 207 207 197 186 214 275 282 256 221 178
208 215 225 198 204 184 180 27 226 197 211 179 248 170 177 191 183 183 104 90 278 75 181 238 308 298 302 44 277 102 333 326 130 233 310 330 299 302 272 279 328 305 283 286 282 284 276 283 334 345 83 66 49 35 22 340 342 291 290 261 222 236 239 234 220 226 235 259 275 261 321 341 281 234 200 202 217 215 215 218 185 181 225 226 230 247 163
237 219 194 170 337 280 228 181 176 221 204 167 207 219 172 61 27 88 71 268 269 123 267 17 286 271 276 120 257 307 272 290 299 308 320 283 291 283 309 312 292 280 287 277 270 272 279 296 302 66 62 352 39 43 328 291 294 298 284 265 242 235 240 242 233 236 248 244 229 240 256 287 290 250 215 200 217 218 215 227 236 237 219 227 218 223 182
254 235 266 286 256 181 224 204 207 189 169 203 39 24 68 90 50 54 64 302 290 42 298 245 280 320 301 312 296 225 205 243 275 297 284 274 260 283 254 293 280 255 252 266 272 282 298 333 341 325 306 2 310 296 314 300 304 309 306 302 284 254 237 238 240 239 242 240 245 251 257 251 269 259 233 206 210 221 214 217 222 216 226 230 202 200 209
259 284 288 219 202 187 195 215 116 149 301 65 134 129 80 166 192 149 139 192 349 277 308 331 294 245 249 131 190 282 295 271 281 274 258 283 244 261 284 255 259 265 253 263 273 307 316 349 337 351 303 282 328 30 293 294 308 302 291 285 284 275 256 239 239 241 238 238 243 250 247 235 245 244 234 223 215 206 205 210 209 207 213 217 220 207 231
310 289 248 255 250 219 235 144 213 192 165 168 205 208 190 220 214 124 115 141 276 310 351 298 323 314 276 254 268 268 266 158 248 249 173 228 241 241 225 255 256 272 268 262 294 319 332 8 2 341 310 294 274 214 286 294 312 315 298 282 276 282 280 262 245 239 238 239 240 246 248 248 261 262 235 220 224 220 210 198 202 198 208 219 221 218 210
248 204 232 231 206 226 201 197 248 227 174 181 210 227 204 252 263 80 69 273 282 276 264 226 182 291 305 322 284 297 278 260 259 262 261 262 251 258 247 258 258 261 279 306 306 311 318 323 315 292 293 292 298 298 295 298 310 298 280 271 257 241 254 267 259 248 244 240 237 243 250 253 248 254 264 249 224 220 219 204 201 205 209 215 221 213 221
216 280 255 270 281 217 183 227 226 231 205 213 224 219 214 247 268 143 73 289 255 274 263 270 200 236 274 262 250 256 247 350 281 256 256 263 256 246 244 254 266 286 301 312 301 298 299 305 301 304 292 290 299 295 283 284 285 280 288 291 287 291 277 255 262 263 251 243 240 241 250 252 249 253 243 250 243 217 223 210 207 217 217 216 214 228 216
236 220 226 196 228 248 233 286 333 279 271 114 220 218 269 255 228 176 101 264 259 258 272 286 271 259 237 254 243 282 311 267 261 280 275 270 265 269 269 275 289 299 306 302 302 310 314 314 315 303 290 300 304 290 283 279 277 280 283 282 287 287 290 280 263 258 255 240 234 237 237 242 246 239 234 235 232 228 226 226 213 214 221 225 221 220 234